Weather History for KNYL - March, 2013

Change the Weather History Date:

Sunday, March 3, 2013

  Actual Average Record
Temperature  
Mean Temperature 66 °F 65 °F  
Max Temperature 79 °F 77 °F 95 °F (1910)
Min Temperature 52 °F 53 °F 34 °F (1971)
Degree Days  
Heating Degree Days 0 2  
Month to date heating degree days 0 7  
Since 1 July heating degree days 689 630  
Cooling Degree Days 1 2  
Month to date cooling degree days 5 6  
Year to date cooling degree days 16 42  
Growing Degree Days 15 (Base 50)    
Moisture  
Dew Point 32 °F    
Average Humidity 33    
Maximum Humidity 50    
Minimum Humidity 15    
Precipitation  
Precipitation 0.00 in 0.01 in 0.57 in (1894)
Month to date precipitation 0.00 0.04  
Year to date precipitation 1.03 0.80  
Sea Level Pressure  
Sea Level Pressure 29.95 in    
Wind  
Wind Speed 2 mph (SSW)    
Max Wind Speed 9 mph    
Max Gust Speed 12 mph    
Visibility 10 miles    
Events      
T = Trace of Precipitation, MM = Missing Value Source: NWS Daily Summary

Daily Weather History Graph

Daily Weather History Graph

Search for Another Location

Airport or City:

Trip Planner

Search our weather history database for the weather conditions in past years. The results will help you decide how hot, cold, wet, or windy it might be!

Date:

Astronomy

Mar. 03, 2013 Rise Set
Actual Time 7:03 AM MST 6:37 PM MST
Civil Twilight 6:38 AM MST 7:02 PM MST
Nautical Twilight 6:10 AM MST 7:30 PM MST
Astronomical Twilight 5:41 AM MST 7:59 PM MST
Moon No Moon Rise 10:43 AM MST (3/3)
Length of Visible Light 12h 23m
Length of Day
11h 34m
Waning Gibbous, 63% of the Moon is Illuminated
Mar 3
Waning Gibbous
Mar 4
Last Quarter
Mar 11
New
Mar 19
First Quarter
Mar 27
Full

Hourly Weather History & Observations

Time (MST) Temp. Dew Point Humidity Pressure Visibility Wind Dir Wind Speed Gust Speed Precip Events Conditions
12:55 AM 59.0 °F 34.0 °F 39% 30.03 in 10.0 mi Calm Calm - N/A   Partly Cloudy
1:55 AM 57.9 °F 32.0 °F 37% 30.02 in 10.0 mi Calm Calm - N/A   Partly Cloudy
2:00 AM - - N/A% - - North - - N/A   Unknown
2:55 AM 57.9 °F 33.1 °F 39% 30.01 in 10.0 mi Calm Calm - N/A   Scattered Clouds
3:55 AM 55.9 °F 34.0 °F 44% 29.99 in 10.0 mi Calm Calm - N/A   Scattered Clouds
4:55 AM 53.1 °F 32.0 °F 45% 29.98 in 10.0 mi SSE 4.6 mph - N/A   Mostly Cloudy
5:55 AM 54.0 °F 34.0 °F 47% 29.99 in 10.0 mi ENE 4.6 mph - N/A   Mostly Cloudy
6:00 AM - - N/A% - - North - - N/A   Unknown
6:55 AM 53.1 °F 35.1 °F 50% 29.99 in 10.0 mi Calm Calm - N/A   Mostly Cloudy
7:55 AM 55.9 °F 34.0 °F 44% 30.00 in 10.0 mi Calm Calm - N/A   Mostly Cloudy
8:00 AM - - N/A% - - North - - N/A   Unknown
8:55 AM 61.0 °F 33.1 °F 35% 30.01 in 10.0 mi Calm Calm - N/A   Mostly Cloudy
9:55 AM 63.0 °F 36.0 °F 37% 30.01 in 10.0 mi SSW 3.5 mph - N/A   Mostly Cloudy
10:00 AM - - N/A% - - North - - N/A   Unknown
10:55 AM 66.9 °F 35.1 °F 31% 30.01 in 10.0 mi Calm Calm - N/A   Mostly Cloudy
11:55 AM 70.0 °F 33.1 °F 26% 30.00 in 10.0 mi Calm Calm - N/A   Mostly Cloudy
12:55 PM 72.0 °F 32.0 °F 23% 29.97 in 10.0 mi Calm Calm - N/A   Mostly Cloudy
1:55 PM 75.9 °F 25.0 °F 15% 29.95 in 10.0 mi Calm Calm - N/A   Mostly Cloudy
2:55 PM 77.0 °F 27.0 °F 16% 29.92 in 10.0 mi WSW 3.5 mph - N/A   Mostly Cloudy
3:55 PM 77.0 °F 28.9 °F 17% 29.91 in 10.0 mi West 3.5 mph - N/A   Mostly Cloudy
4:55 PM 77.0 °F 26.1 °F 15% 29.89 in 10.0 mi SSW 5.8 mph - N/A   Mostly Cloudy
5:55 PM 77.0 °F 28.9 °F 17% 29.89 in 10.0 mi SSW 5.8 mph - N/A   Mostly Cloudy
6:55 PM 72.0 °F 34.0 °F 25% 29.88 in 10.0 mi SSE 3.5 mph - N/A   Mostly Cloudy
7:55 PM 66.9 °F 34.0 °F 30% 29.88 in 10.0 mi South 4.6 mph - N/A   Clear
8:55 PM 64.9 °F 30.0 °F 27% 29.87 in 10.0 mi SSW 3.5 mph - N/A   Partly Cloudy
9:55 PM 64.0 °F 34.0 °F 33% 29.88 in 10.0 mi NW 4.6 mph - N/A   Partly Cloudy
10:55 PM 62.1 °F 36.0 °F 38% 29.89 in 10.0 mi Calm Calm - N/A   Clear
11:55 PM 59.0 °F 35.1 °F 41% 29.87 in 10.0 mi Calm Calm - N/A   Clear